Weather History for EGUW - October, 2012

Change the Weather History Date:

Wednesday, October 10, 2012

  Actual Average (EGSC) Record (EGSC)
Temperature  
Mean Temperature 48 °F -  
Max Temperature 57 °F 59 °F 71 °F (2005)
Min Temperature 38 °F 48 °F 39 °F (2012)
Degree Days  
Heating Degree Days 18    
Moisture  
Dew Point 40 °F    
Average Humidity 73    
Maximum Humidity 93    
Minimum Humidity 43    
Precipitation  
Precipitation 0.00 in - - ()
Sea Level Pressure  
Sea Level Pressure 29.99 in    
Wind  
Wind Speed 5 mph ()    
Max Wind Speed 8 mph    
Max Gust Speed -    
Visibility 7.3 miles    
Events      
Averages and records for this station are not official NWS values.
T = Trace of Precipitation, MM = Missing Value Source: Averaged Metar Reports

Daily Weather History Graph

Daily Weather History Graph

Search for Another Location

Airport or City:

Trip Planner

Search our weather history database for the weather conditions in past years. The results will help you decide how hot, cold, wet, or windy it might be!

Date:

Astronomy

Oct. 10, 2012 Rise Set
Actual Time 7:12 AM BST 6:12 PM BST
Civil Twilight 6:38 AM BST 6:46 PM BST
Nautical Twilight 5:59 AM BST 7:25 PM BST
Astronomical Twilight 5:20 AM BST 8:04 PM BST
Moon 12:55 AM BST (10/10) 3:40 PM BST (10/10)
Length of Visible Light 12h 07m
Length of Day
10h 59m
Waning Crescent, 29% of the Moon is Illuminated
Oct 10
Waning Crescent
Oct 15
New
Oct 22
First Quarter
Oct 29
Full
Nov 7
Last Quarter

Hourly Weather History & Observations

Time (BST) Temp. Windchill Dew Point Humidity Pressure Visibility Wind Dir Wind Speed Gust Speed Precip Events Conditions
12:50 AM 43 °F - 37 °F 72% 30.05 in 22 mi NNE 5.8 mph - -   Partly Cloudy
12:50 AM 42.8 °F 39.3 °F 37.4 °F 81% 30.04 in 6.2 mi NNE 5.8 mph - N/A   Scattered Clouds
1:50 AM 39.2 °F 35.0 °F 37.4 °F 93% 30.04 in 6.2 mi NNE 5.8 mph - N/A   Scattered Clouds
2:50 AM 41.0 °F 36.4 °F 37.4 °F 87% 30.01 in 6.2 mi NNE 6.9 mph - N/A   Mostly Cloudy
3:50 AM 44 °F - 38 °F 73% 30.03 in 22 mi NE 6.9 mph - -   Mostly Cloudy
3:50 AM 42.8 °F 38.6 °F 39.2 °F 87% 30.01 in 6.2 mi NE 6.9 mph - N/A   Mostly Cloudy
4:50 AM 42.8 °F 40.1 °F 39.2 °F 87% 30.01 in 6.2 mi NNE 4.6 mph - N/A   Mostly Cloudy
5:50 AM 41.0 °F 38.0 °F 39.2 °F 93% 30.01 in 6.2 mi North 4.6 mph - N/A   Mostly Cloudy
6:50 AM 43 °F - 39 °F 81% 30.02 in 22 mi NE 3.5 mph - -   Mostly Cloudy
6:50 AM 42.8 °F 41.1 °F 39.2 °F 87% 30.01 in 6.2 mi NE 3.5 mph - N/A   Mostly Cloudy
7:50 AM 41.0 °F 37.1 °F 39.2 °F 93% 30.01 in 6.2 mi NNE 5.8 mph - N/A   Scattered Clouds
8:50 AM 46.4 °F 43.5 °F 41.0 °F 81% 30.01 in 6.2 mi NE 5.8 mph - N/A   Partly Cloudy
9:50 AM 51 °F - 40 °F 56% 30.03 in 28 mi ENE 5.8 mph - -   Scattered Clouds
9:50 AM 51.8 °F - 41.0 °F 67% 30.01 in 6.2 mi ENE 5.8 mph - N/A   Partly Cloudy
10:50 AM 53.6 °F - 39.2 °F 58% 30.01 in 6.2 mi ENE 5.8 mph - N/A   Partly Cloudy
11:50 AM 55.4 °F - 39.2 °F 54% 30.01 in 6.2 mi ESE 4.6 mph - N/A   Partly Cloudy
12:50 PM 56 °F - 40 °F 43% 30.01 in 31 mi ESE 4.6 mph - -   Mostly Cloudy
12:50 PM 55.4 °F - 39.2 °F 54% 30.01 in 6.2 mi ESE 4.6 mph - N/A   Mostly Cloudy
1:50 PM 55.4 °F - 41.0 °F 58% 29.98 in 6.2 mi SSE 3.5 mph - N/A   Mostly Cloudy
2:50 PM 55.4 °F - 41.0 °F 58% 29.98 in 6.2 mi SSE 5.8 mph - N/A   Mostly Cloudy
3:50 PM 55 °F - 41 °F 49% 29.98 in 31 mi ESE 6.9 mph - -   Mostly Cloudy
3:50 PM 55.4 °F - 41.0 °F 58% 29.98 in 6.2 mi ESE 6.9 mph - N/A   Mostly Cloudy
4:50 PM 55.4 °F - 41.0 °F 58% 29.95 in 6.2 mi SSE 8.1 mph - N/A   Scattered Clouds
5:50 PM 51.8 °F - 41.0 °F 67% 29.95 in 6.2 mi SSE 6.9 mph - N/A   Partly Cloudy
6:50 PM 49 °F - 42 °F 70% 29.97 in 19 mi SE 3.5 mph - -   Scattered Clouds
6:50 PM 50.0 °F - 42.8 °F 76% 29.95 in 6.2 mi SE 3.5 mph - N/A   Partly Cloudy
7:50 PM 48.2 °F - 42.8 °F 82% 29.95 in 6.2 mi ESE 3.5 mph - N/A   Partly Cloudy
8:50 PM 48.2 °F - 42.8 °F 82% 29.95 in 6.2 mi SE 3.5 mph - N/A   Partly Cloudy
9:50 PM 47 °F - 42 °F 76% 29.95 in 19 mi SE 3.5 mph - -  
9:50 PM 48.2 °F - 42.8 °F 82% 29.95 in - SE 3.5 mph - N/A   Clear
10:50 PM 46.4 °F 45.2 °F 42.8 °F 87% 29.92 in - SE 3.5 mph - N/A   Clear
11:50 PM 46.4 °F 45.2 °F 42.8 °F 87% 29.92 in - ESE 3.5 mph - N/A   Clear